Content
SEND FEEDBACK

Daily
Averages
Monthly
Summary
Philippines

OLONGAPO, PHILIPPINES


Home > Asia > Philippines
Elevation: 55 feet     Latitude: 14 48N     Longitude: 120 16E

WEATHER
 
SELECT A DAY
Number of Records: 139,091;   Date Range: 7/31/96 - 10/19/14
 
SHARE

PRINT THIS DATA

[ ← Previous Day ]
WEATHER ALMANAC - SEPTEMBER 1, 2013
[ Next Day → ]
[ °C ]   °F
Weather ElementAverageHighLow
Temperature84.4 °F93.2 °F (12:00 pm)77 °F (6:00 am)
Dewpoint74.1 °F77 °F (2:00 pm)71.6 °F (5:00 am)
Humidity70.2 %84 % (11:00 pm)52 % (12:00 pm)
Barometer29.84 in29.89 in (10:00 pm)29.77 in (3:00 pm)
Wind Speed5.9 mph13.4 mph (2:00 pm)
Weather ElementAverage
Visibility7.5 mi
Wind DirectionESE (112.6 °)

Weather ElementTotal
Precipitation---
Cooling Degree Days20.1 (Base 65)
Growing Degree Days35.1 (Base 50)
Averaged from 27 records on September 1, 2013
WEATHER CONDITIONS BREAKOUT
WIND DIRECTION BREAKOUT
WEATHER BY HOUR - SEPTEMBER 1, 2013
[ °C ]   °F
Local TimeTemperatureDewpointHumidityBarometerVisibilityWind DirectionWind SpeedGust SpeedPrecipitationEventsConditions
2:00 AM79.0 °F74.0 °F79 %29.84 in11.0 miNE (50°)4.5 mphHaze
2:00 AM78.8 °F73.4 °F83 %29.83 in6.2 miNE (50°)4.6 mphMostly Cloudy
5:00 AM79.0 °F72.0 °F73 %29.83 in11.0 miENE (60°)4.5 mphHaze
5:00 AM78.8 °F71.6 °F78 %29.83 in6.2 miENE (60°)5.8 mphPartly Cloudy
6:00 AM77.0 °F71.6 °F83 %29.83 in6.2 miVariable2.3 mphMostly Cloudy
7:00 AM78.8 °F73.4 °F83 %29.86 in6.2 miVariable2.3 mphMostly Cloudy
8:00 AM80.6 °F73.4 °F79 %29.86 in6.2 miVariable1.2 mphMostly Cloudy
8:00 AM81.0 °F73.0 °F70 %29.87 in11.0 miENE (60°)2.2 mphHaze
9:00 AM86.0 °F73.4 °F66 %29.86 in6.2 miVariable2.3 mphMostly Cloudy
10:00 AM86.0 °F75.2 °F70 %29.86 in6.2 miNW (320°)4.6 mphScattered Clouds
11:00 AM91.4 °F75.2 °F59 %29.86 in6.2 miNorth (10°)4.6 mphMostly Cloudy
12:00 PM93.2 °F73.4 °F52 %29.83 in6.2 miEast (90°)8.1 mphMostly Cloudy
1:00 PM91.4 °F73.4 °F55 %29.83 in6.2 miSW (220°)10.4 mphMostly Cloudy
2:00 PM91.4 °F77.0 °F63 %29.80 in6.2 miSW (220°)12.7 mphScattered Clouds
2:00 PM91.0 °F77.0 °F56 %29.80 in12.0 miSW (220°)13.4 mphHaze
3:00 PM91.4 °F77.0 °F63 %29.77 in6.2 miSW (220°)11.5 mphMostly Cloudy
4:00 PM89.6 °F73.4 °F59 %29.77 in6.2 miNNW (330°)6.9 mphMostly Cloudy
5:00 PM87.0 °F76.0 °F63 %29.79 in12.0 miNorth6.7 mphHaze
5:00 PM87.8 °F77.0 °F70 %29.77 in6.2 miNorth (360°)6.9 mphPartly Cloudy
6:00 PM86.0 °F77.0 °F74 %29.83 in6.2 miNNW (340°)8.1 mphMostly Cloudy
7:00 PM86.0 °F73.4 °F66 %29.86 in6.2 miENE (60°)10.4 mphMostly Cloudy
8:00 PM84.0 °F73.0 °F61 %29.87 in11.0 miENE (70°)4.5 mphHaze
8:00 PM84.2 °F73.4 °F70 %29.86 in6.2 miENE (70°)4.6 mphMostly Cloudy
9:00 PM82.4 °F73.4 °F74 %29.86 in6.2 miNE (50°)4.6 mphMostly Cloudy
10:00 PM80.6 °F73.4 °F79 %29.89 in6.2 miENE (60°)4.6 mphPartly Cloudy
11:00 PM78.0 °F74.0 °F84 %29.89 in11.0 miENE (60°)4.5 mphHaze
11:00 PM78.8 °F73.4 °F83 %29.89 in6.2 miENE (60°)3.5 mphPartly Cloudy
Hourly data recorded from RPLB, located miles away from Olongapo, Philippines







STORIES FROM OUR PARTNERS